Regional Weather Roundup
Issued by NWS Newport/Morehead, NC

Current Version | Previous Version | Graphics & Text | Print | Product List | Glossary Off
Versions: 1 2 3 4 5 6 7 8 9 10 11 12 13 14 15 16 17 18 19 20 21 22 23 24 25 26 27 28 29 30 31 32 33 34 35 36 37 38 39 40 41 42 43 44 45 46 47 48 49 50

000
ASUS42 KMHX 272325
RWRMHX
WEATHER ROUNDUP FOR EASTERN NORTH CAROLINA
NATIONAL WEATHER SERVICE NEWPORT/MOREHEAD CITY NC
700 PM EDT TUE JUN 27 2017

NOTE: "FAIR" INDICATES FEW OR NO CLOUDS BELOW 12,000 FEET
WITH NO SIGNIFICANT WEATHER AND/OR OBSTRUCTIONS TO VISIBILITY

NCZ015>017-031-032-045>047-102-103-280000-
NORTH COAST

CITY           SKY/WX    TMP DP  RH WIND       PRES   REMARKS
EDENTON        MOSUNNY   82  60  47 NW6       29.99S
ELIZABETH CITY CLOUDY    77  68  73 NE15      29.98R
KITTY HAWK     RAIN      76  62  62 S3        29.98R
MANTEO         LGT RAIN  74  66  75 CALM      30.00R

$$

NCZ045>047-081-094-103-104-280000-
CENTRAL COAST

CITY           SKY/WX    TMP DP  RH WIND       PRES   REMARKS
FRISCO         NOT AVBL

$$

NCZ095-097-098-100-101-280000-
SOUTHERN COAST

CITY           SKY/WX    TMP DP  RH WIND       PRES   REMARKS
BEAUFORT       CLOUDY    81  64  56 SW9       29.99F
CEDAR ISLAND   NOT AVBL
JACKSONVILLE   MOSUNNY   81  67  62 SW6       30.00
PINEY ISLAND   CLOUDY   N/A N/A N/A S8        29.99S
WILMINGTON     PTSUNNY   81  67  62 S5        30.00F


$$

NCZ011>013-027>030-043-044-078>080-089-090>093-098-280000-
COASTAL PLAIN

CITY           SKY/WX    TMP DP  RH WIND       PRES   REMARKS
AHOSKIE          N/A     74  63  66 CALM      30.01S
CLINTON        PTSUNNY   82  61  48 CALM      30.02R
ELIZABETHTOWN  NOT AVBL
GOLDSBORO      MOSUNNY   83  58  41 W8        30.00R
GREENVILLE     CLOUDY    81  57  44 NW6       30.02S
HAVELOCK       CLOUDY    80  64  58 SW8       30.01S
KENANSVILLE    CLOUDY    81  63  54 CALM      30.01S
KINSTON        CLOUDY    81  61  50 CALM      30.01S
NEW BERN       MOSUNNY   81  67  62 S3        30.00S
RICHLANDS      PTSUNNY   82  68  62 CALM      30.01R
ROCKY MOUNT    CLOUDY    79  56  45 NW7       30.02R
WASHINGTON     CLOUDY   N/A N/A N/A CALM      30.00R
WHITEVILLE     PTSUNNY   78  69  73 CALM      30.00S

$$

AMZ130-135-150-152-154-156-158-170-250-252-270-ANZ085-086-088-633-658-670-280000-
MARINE OBSERVATIONS

STATION/POSITION TIME  TEMP    WIND        PRES    WAVE   SWELL
                       AIR SEA DIR/SP/G            HT/PER HT/PER
                 (UTC) (F)     (DEG/KT/KT) (MB)    (FT/S) (FT/S)
CHESAPEAKE LIGHT NOT AVBL
64 E VA BEACH    2250   75 79  310/  6/  6 1016.0    1/ 8   2/ 8
DUCK             2300   71 76   10/ 18/ 23 1014.8
2 E DUCK         NOT AVBL
OREGON INLET     2300   81 76  190/ 10/ 12 1015.2
13E OREGON INLT  2248      75                N/A     1/ 8   2/ 8
HATTERAS CG      2300   81 79  190/  4/  7 1015.6
DIAMOND BUOY     2250   80 83  240/  4/  4 1015.7    2/ 7   2/ 7
CAPE LOOKOUT     2300   80     210/  4/  5 1015.5
BEAUFORT LAB     2300   81 80  210/  7/  9 1015.0
30 SE NEW RVR IN 2308   80 83  210/  4/  6 1016.1
30 SE NEW RVR IN 2313      83                N/A     2/ 8
27 SE WRIGHTSVLE 2308   81 83  170/  6/  8 1015.4
5 SE WRIGHTSVLE  2308   80 80  200/  6/  8 1015.8
225 S CAPE HAT   2250   78 80  220/  6/  8 1015.9    3/ 5   3/ 5
41 SE CHARLESTON 2310   80 81   80/  8/ 10 1015.8

$$




USA.gov is the U.S. government's official web portal to all federal, state and local government web resources and services.